DateTime,F1_A11,F1_S11,BsB_S11,BsG_S11,BsR_S11,BbsB_S11,BbsG_S11,BbsR_S11,BaB_A11,BaG_A11,BaR_A11,T_S11,U_S11,P_S11,T1_A11
2016-08-16T00:00:00Z,0000380,20000600,,,,,,,,,,27.7,04.6,0664.8,34.8
2016-08-16T00:01:00Z,0000380,20000600,,,,,,,,,,27.7,04.5,0664.8,34.8
2016-08-16T00:02:00Z,0000380,20000600,,,,,,,,,,27.7,04.5,0664.8,34.8
2016-08-16T00:03:00Z,0000380,60000600,,,,,,,,,,27.7,04.5,0664.8,34.8
2016-08-16T00:04:00Z,0000380,40000600,0000.94,0000.26,0001.04,0000.03,0000.35,0000.24,-000.14,-000.15,-000.48,27.7,04.2,0665.8,34.8
2016-08-16T00:05:00Z,0000380,00000600,0000.78,0000.37,0000.38,-000.02,0000.19,0000.22,0000.10,0000.13,0000.31,27.7,04.2,0665.8,34.8
2016-08-16T00:06:00Z,0000380,00000600,0000.76,0000.58,0000.34,-000.43,-000.32,0000.26,-000.03,-000.04,0000.08,27.7,04.2,0665.8,34.8
2016-08-16T00:07:00Z,0000380,00000600,0001.55,0001.13,0000.46,-000.02,0000.10,0000.32,0000.13,0000.18,-000.03,27.7,04.3,0665.8,34.8
2016-08-16T00:08:00Z,0000380,00000600,0000.97,0000.72,0000.51,0000.48,-000.03,-000.05,-000.20,-000.02,0000.15,27.6,04.2,0665.8,34.8
2016-08-16T00:09:00Z,0000380,00000600,0002.09,0000.86,0000.09,0000.69,0000.52,-000.40,0000.17,0000.17,0000.14,27.6,04.3,0665.8,34.8
2016-08-16T00:10:00Z,0000380,00000600,0001.79,0001.13,0000.44,-000.11,0000.03,-000.03,0000.26,-000.00,0000.11,27.6,04.3,0665.8,34.8
2016-08-16T00:11:00Z,0000380,00000600,0000.37,0001.09,0000.41,0000.21,0000.36,-000.06,0000.18,0000.13,0000.01,27.6,04.3,0665.8,34.8
2016-08-16T00:12:00Z,0000380,00000600,0001.71,0000.50,0000.40,0000.30,0000.11,-000.13,-000.45,-000.09,-000.34,27.5,04.2,0665.8,34.8
2016-08-16T00:13:00Z,0000380,00000600,0001.13,0001.04,0000.62,0000.21,0000.21,0000.10,0000.39,0000.03,0000.19,27.5,04.3,0665.7,34.8
2016-08-16T00:14:00Z,0000380,00000600,0001.69,0001.23,0000.30,0000.35,0000.22,-000.14,-000.19,0000.06,-000.09,27.5,04.1,0665.8,34.8
2016-08-16T00:15:00Z,0000380,00000600,0002.36,0000.23,0001.15,0000.29,-000.11,0000.41,0000.01,-000.34,-000.16,27.5,04.0,0665.8,34.8
2016-08-16T00:16:00Z,0000380,00000600,0002.12,0000.47,0000.52,0000.27,0000.78,0000.03,-000.03,-000.03,-000.11,27.5,03.9,0665.7,34.8
2016-08-16T00:17:00Z,0000380,00000600,0001.03,0000.46,-000.05,-000.54,0000.03,0000.10,-000.22,-000.08,-000.18,27.5,03.9,0665.7,34.8
2016-08-16T00:18:00Z,0000380,00000600,0001.00,0000.40,0000.93,0000.37,0000.10,0000.77,0000.12,-000.06,0000.21,27.5,03.8,0665.8,34.8
2016-08-16T00:19:00Z,0000380,00000600,0001.64,0000.79,-000.26,0000.84,0000.35,-000.38,-000.25,-000.01,-000.06,27.5,03.8,0665.8,34.8
2016-08-16T00:20:00Z,0000380,00000600,0001.10,0001.16,0000.51,0000.14,0000.63,0000.24,0000.13,-000.01,0000.05,27.5,03.9,0665.8,34.8
2016-08-16T00:21:00Z,0000380,00000600,0001.83,0001.48,0000.46,0000.06,0000.11,0000.13,0000.05,-000.09,-000.00,27.5,03.7,0665.8,34.8
2016-08-16T00:22:00Z,0000380,00000600,0001.30,0000.84,0000.74,-000.16,-000.13,0000.06,-000.20,0000.12,0000.23,27.4,03.8,0665.7,34.8
2016-08-16T00:23:00Z,0000380,00000600,0001.61,0000.72,0000.50,-000.33,0000.22,-000.16,0000.06,-000.05,-000.19,27.4,03.8,0665.8,34.8
2016-08-16T00:24:00Z,0000380,00000600,0001.09,0001.21,0000.17,-000.05,0000.33,-000.02,0000.03,-000.11,-000.18,27.4,03.8,0665.8,34.8
2016-08-16T00:25:00Z,0000380,00000600,0001.96,0000.63,0000.41,0000.21,0000.00,-000.19,0000.02,0000.18,-000.02,27.3,03.7,0665.8,34.8
2016-08-16T00:26:00Z,0000380,00000600,0002.54,0000.86,0000.23,0001.34,0000.55,0000.05,0000.36,-000.11,0000.30,27.3,03.8,0665.7,34.8
2016-08-16T00:27:00Z,0000380,00000600,0001.26,0000.89,0000.72,0000.13,0000.43,-000.02,-000.29,0000.15,-000.41,27.3,03.8,0665.7,34.8
2016-08-16T00:28:00Z,0000380,00000600,0002.45,0000.77,0000.63,0000.45,0000.46,-000.08,-000.05,-000.03,0000.57,27.3,03.8,0665.7,34.8
2016-08-16T00:29:00Z,0000380,00000600,0001.52,0001.05,0000.25,0000.13,-000.11,0000.14,0000.23,-000.04,-000.24,27.3,03.8,0665.7,34.8
2016-08-16T00:30:00Z,0000380,00000600,0001.86,0000.98,0000.78,0000.24,-000.13,-000.10,-000.32,0000.22,0000.13,27.3,03.8,0665.7,34.8
2016-08-16T00:31:00Z,0000380,00000600,0001.69,0000.74,0000.58,0000.88,0000.13,0000.53,0000.09,-000.24,0000.15,27.3,03.7,0665.7,34.8
2016-08-16T00:32:00Z,0000380,00000600,0001.57,0000.94,0000.54,0000.45,0000.03,0000.59,-000.02,0000.12,-000.15,27.3,03.6,0665.7,34.8
2016-08-16T00:33:00Z,0000380,00000600,0001.41,0001.26,0000.32,0000.46,0000.19,-000.05,-000.16,-000.10,-000.04,27.3,03.7,0665.7,34.8
2016-08-16T00:34:00Z,0000380,00000600,0002.11,0001.55,0000.62,0000.51,0000.13,-000.02,0000.34,0000.29,0000.07,27.3,03.7,0665.6,34.8
2016-08-16T00:35:00Z,0000380,00000600,0001.17,0000.82,0000.58,-000.05,0000.17,-000.16,-000.20,-000.14,-000.16,27.2,03.6,0665.6,34.8
2016-08-16T00:36:00Z,0000380,00000600,0003.13,0000.67,0000.24,0000.29,-000.29,-000.02,0000.02,0000.04,0000.19,27.2,03.7,0665.6,34.8
2016-08-16T00:37:00Z,0000380,00000600,0001.80,0001.24,0000.81,0000.45,0000.36,0000.33,0000.19,0000.18,0000.11,27.2,03.6,0665.6,34.8
2016-08-16T00:38:00Z,0000380,00000600,0002.10,0000.59,0000.27,0000.41,0000.49,-000.30,0000.20,-000.07,0000.09,27.2,03.6,0665.6,34.8
2016-08-16T00:39:00Z,0000380,00000600,0002.24,0001.17,0000.65,0000.80,0000.27,0000.14,-000.02,0000.16,-000.06,27.2,03.6,0665.6,34.8
2016-08-16T00:40:00Z,0000380,00000600,0001.88,0001.18,0000.34,0000.37,-000.14,-000.13,-000.27,-000.11,-000.14,27.2,03.5,0665.6,34.8
2016-08-16T00:41:00Z,0000380,00000600,0001.46,0000.69,0000.73,0000.56,0000.29,0000.05,0000.15,0000.03,0000.05,27.2,03.5,0665.5,34.8
2016-08-16T00:42:00Z,0000380,00000600,0001.51,0000.71,0000.17,0000.02,0000.49,0000.05,0000.07,0000.22,0000.23,27.2,03.5,0665.5,34.8
2016-08-16T00:43:00Z,0000380,00000600,0001.31,0001.08,0000.76,0000.46,0000.13,0000.14,-000.02,0000.00,0000.29,27.2,03.5,0665.5,34.8
2016-08-16T00:44:00Z,0000380,00000600,0001.27,0000.64,0000.98,0000.14,-000.05,0000.00,0000.25,0000.18,0000.08,27.2,03.6,0665.5,34.8
2016-08-16T00:45:00Z,0000380,00000600,0001.29,0001.32,0001.40,0000.49,-000.08,-000.03,0000.24,0000.15,0000.14,27.2,03.7,0665.5,34.8
2016-08-16T00:46:00Z,0000380,00000600,0001.83,0001.57,0000.57,-000.40,0000.22,0000.19,-000.08,0000.06,0000.04,27.2,03.7,0665.5,34.8
2016-08-16T00:47:00Z,0000380,00000600,0002.48,0001.18,0000.00,-000.27,0000.00,0000.38,0000.11,-000.02,-000.06,27.2,03.7,0665.5,34.8
2016-08-16T00:48:00Z,0000380,00000600,0002.14,0000.86,0000.48,0000.14,0000.10,0000.19,0000.10,0000.32,0000.47,27.2,03.8,0665.5,34.8
2016-08-16T00:49:00Z,0000380,00000600,0000.92,0000.86,0000.75,-000.08,-000.17,0000.40,0000.51,0000.51,0000.36,27.2,04.1,0665.5,34.8
2016-08-16T00:50:00Z,0000380,00000600,0000.89,0000.64,0000.12,0000.37,-000.25,-000.13,-000.23,-000.04,-000.00,27.2,04.2,0665.6,34.8
2016-08-16T00:51:00Z,0000380,00000600,0000.91,0000.14,0000.23,0000.08,-000.08,-000.08,0000.26,-000.01,0000.00,27.2,04.2,0665.5,34.8
2016-08-16T00:52:00Z,0000380,00000600,0000.95,0000.44,-000.23,-000.05,0000.17,-000.05,0000.13,-000.03,0000.15,27.2,04.4,0665.5,34.8
2016-08-16T00:53:00Z,0000380,00000600,0001.15,0000.55,0000.26,-000.05,-000.14,0000.00,-000.08,0000.17,0000.22,27.2,04.5,0665.6,34.8
2016-08-16T00:54:00Z,0000380,00000600,0001.45,-000.21,0000.05,0000.32,0000.32,0000.19,0000.24,0000.32,0000.05,27.2,04.6,0665.5,34.8
2016-08-16T00:55:00Z,0000380,00000600,0001.35,0000.70,0000.18,-000.38,0000.33,0000.27,-000.05,-000.04,-000.12,27.2,04.6,0665.5,34.8
2016-08-16T00:56:00Z,0000380,00000600,0000.99,0000.20,0000.54,0000.10,-000.40,0000.40,0000.27,0000.24,0000.39,27.2,04.7,0665.5,34.8
2016-08-16T00:57:00Z,0000380,40000600,,,,,,,,,,,,0665.4,34.8
2016-08-16T00:58:00Z,0000380,60000600,,,,,,,,,,27.0,04.6,0664.5,34.8
2016-08-16T00:59:00Z,0000380,20000600,,,,,,,,,,27.0,04.6,0664.5,34.8
2016-08-16T01:00:00Z,0000380,20000600,,,,,,,,,,27.0,04.7,0664.5,34.8
2016-08-16T01:01:00Z,0000380,20000600,,,,,,,,,,27.0,04.8,0664.5,34.8
2016-08-16T01:02:00Z,0000380,20000600,,,,,,,,,,27.0,04.8,0664.5,34.8
2016-08-16T01:03:00Z,0000380,60000600,,,,,,,,,,27.0,04.8,0664.5,34.8
2016-08-16T01:04:00Z,0000380,40000600,0001.80,0000.58,0000.02,0000.35,0000.05,-000.05,0000.05,0000.07,-000.16,27.1,05.2,0665.4,34.8
2016-08-16T01:05:00Z,0000380,00000600,0001.83,0000.53,0000.36,0000.13,-000.10,-000.11,-000.12,-000.10,0000.35,27.1,05.2,0665.5,34.8
2016-08-16T01:06:00Z,0000380,00000600,0001.06,0001.00,0000.34,-000.32,-000.29,0000.16,0000.31,0000.25,-000.35,27.1,05.2,0665.5,34.8
2016-08-16T01:07:00Z,0000380,00000600,0001.97,0000.46,0000.29,0000.00,-000.08,0000.00,-000.01,0000.05,0000.33,27.1,05.2,0665.5,34.8
2016-08-16T01:08:00Z,0000380,00000600,0001.49,0001.27,0000.38,-000.33,-000.02,0000.19,-000.05,0000.02,0000.07,27.1,05.2,0665.5,34.8
2016-08-16T01:09:00Z,0000380,00000600,0001.58,0001.47,0000.69,0000.30,-000.19,0000.30,0000.02,-000.17,0000.17,27.1,05.2,0665.5,34.8
2016-08-16T01:10:00Z,0000380,00000600,0001.81,0000.69,0000.89,0000.32,-000.10,0000.30,0000.29,0000.24,-000.07,27.1,05.2,0665.5,34.8
2016-08-16T01:11:00Z,0000380,00000600,0001.56,0001.54,0000.92,-000.33,0000.60,0000.62,-000.09,-000.06,0000.11,27.1,05.2,0665.5,34.8
2016-08-16T01:12:00Z,0000380,00000600,0002.20,0001.23,0000.62,0000.41,0000.40,0000.25,-000.11,0000.17,0000.22,27.0,05.3,0665.4,34.8
2016-08-16T01:13:00Z,0000380,00000600,0002.40,0000.97,0000.41,-000.02,-000.30,0000.10,0000.02,0000.03,0000.23,27.0,05.4,0665.4,34.8
2016-08-16T01:14:00Z,0000380,00000600,0002.73,0001.03,0000.86,0000.48,0000.02,-000.08,0000.17,0000.11,-000.21,27.0,05.3,0665.4,34.8
2016-08-16T01:15:00Z,0000380,00000600,0001.59,0001.01,0000.60,-000.25,0000.41,0000.43,-000.14,-000.06,-000.02,27.0,05.4,0665.4,34.8
2016-08-16T01:16:00Z,0000380,00000600,0001.74,0001.15,0000.25,0000.32,0000.16,-000.25,0000.17,0000.02,0000.29,27.0,05.4,0665.4,34.8
2016-08-16T01:17:00Z,0000380,00000600,0002.08,0000.61,0000.34,0000.35,0000.27,-000.25,-000.13,-000.22,-000.33,27.0,05.3,0665.4,34.8
2016-08-16T01:18:00Z,0000380,00000600,0001.81,0000.90,0000.46,0000.33,0000.36,0000.02,0000.06,0000.11,-000.08,27.0,05.3,0665.4,34.8
2016-08-16T01:19:00Z,0000380,00000600,0001.88,0001.17,0000.54,0000.40,0000.27,-000.13,-000.25,-000.15,0000.18,27.0,05.2,0665.4,34.8
2016-08-16T01:20:00Z,0000380,00000600,0001.32,0001.31,0000.79,0000.19,0000.33,0000.06,-000.02,-000.01,-000.14,27.0,05.1,0665.4,34.8
2016-08-16T01:21:00Z,0000380,00000600,0002.04,0001.29,0000.15,0000.19,0000.21,0000.13,-000.11,-000.06,0000.04,27.0,05.1,0665.4,34.8
2016-08-16T01:22:00Z,0000380,00000600,0001.77,0000.87,0000.59,-000.32,0000.08,-000.11,0000.01,0000.05,-000.27,27.0,05.1,0665.4,34.8
2016-08-16T01:23:00Z,0000380,00000600,0001.48,0000.99,0000.30,0000.22,-000.05,-000.10,-000.10,0000.04,0000.22,27.0,05.0,0665.4,34.8
2016-08-16T01:24:00Z,0000380,00000600,0001.39,0000.76,0000.65,0000.41,0000.05,0000.35,0000.06,-000.08,0000.05,27.0,04.9,0665.4,34.8
2016-08-16T01:25:00Z,0000380,00000600,0001.76,0001.04,0000.50,0000.62,0000.22,0000.19,0000.02,0000.10,-000.44,27.0,04.8,0665.4,34.8
2016-08-16T01:26:00Z,0000380,00000600,0001.31,0001.39,0000.47,-000.25,0000.16,0000.02,-000.12,-000.29,0000.10,27.0,04.8,0665.4,34.8
2016-08-16T01:27:00Z,0000380,00000600,0001.23,0000.49,0000.64,-000.03,0000.16,0000.51,-000.16,0000.02,-000.10,26.9,04.7,0665.4,34.8
2016-08-16T01:28:00Z,0000380,00000600,0001.65,0001.33,0000.71,0000.19,0000.41,0000.13,0000.13,-000.11,0000.15,26.9,04.7,0665.4,34.8
2016-08-16T01:29:00Z,0000380,00000600,0001.83,0000.53,0000.46,-000.59,-000.08,0000.13,0000.04,-000.01,-000.01,26.9,04.6,0665.4,34.8
2016-08-16T01:30:00Z,0000380,00000600,0001.50,0000.19,0000.19,-000.27,0000.29,0000.11,-000.11,-000.01,-000.08,27.0,04.5,0665.4,34.8
2016-08-16T01:31:00Z,0000380,00000600,0000.94,0001.32,0000.23,0000.11,-000.05,-000.13,-000.01,-000.12,-000.02,26.9,04.4,0665.4,34.8
2016-08-16T01:32:00Z,0000380,00000600,0001.07,0000.95,0000.37,0000.24,0000.46,0000.27,-000.05,-000.06,-000.18,26.9,04.4,0665.4,34.8
2016-08-16T01:33:00Z,0000380,00000600,0000.81,0000.50,0000.81,-000.80,0000.27,0000.11,-000.04,-000.12,-000.08,27.0,04.4,0665.5,34.8
2016-08-16T01:34:00Z,0000380,00000600,0001.71,0001.16,0000.69,0000.18,-000.19,-000.05,-000.21,0000.02,0000.23,27.0,04.3,0665.4,34.8
2016-08-16T01:35:00Z,0000380,00000600,0001.77,0000.56,0000.86,-000.46,0000.14,0000.30,0000.11,-000.09,-000.25,27.0,04.2,0665.4,34.8
2016-08-16T01:36:00Z,0000380,00000600,0002.12,0001.18,0000.91,-000.13,0000.05,0000.38,-000.06,0000.03,0000.07,26.9,04.2,0665.4,34.8
2016-08-16T01:37:00Z,0000380,00000600,0000.64,0001.29,0000.68,0000.29,0000.06,0000.41,-000.13,0000.04,0000.04,26.9,04.3,0665.4,34.8
2016-08-16T01:38:00Z,0000380,00000600,0002.71,0001.24,0001.18,0000.43,0000.40,0000.25,0000.57,0000.36,0000.15,26.9,04.3,0665.4,34.8
2016-08-16T01:39:00Z,0000380,00000600,0001.54,0000.52,0000.72,0000.48,0000.02,0000.11,-000.07,0000.01,0000.21,26.9,04.3,0665.4,34.8
2016-08-16T01:40:00Z,0000380,00000600,0002.00,0001.19,-000.07,-000.16,0000.02,0000.02,0000.20,0000.10,0000.18,26.9,04.3,0665.4,34.8
2016-08-16T01:41:00Z,0000380,00000600,0000.94,0000.63,0000.58,0000.30,-000.10,0000.06,0000.07,0000.17,0000.18,26.9,04.5,0665.4,34.8
2016-08-16T01:42:00Z,0000380,00000600,0001.46,0000.33,0000.10,-000.02,-000.14,0000.51,-000.08,0000.20,0000.02,26.9,04.6,0665.4,34.8
2016-08-16T01:43:00Z,0000380,00000600,0001.78,0001.25,0000.68,-000.19,0000.14,0000.14,0000.21,0000.01,0000.21,26.8,04.6,0665.4,34.8
2016-08-16T01:44:00Z,0000380,00000600,0001.10,0001.19,0001.65,-000.56,-000.32,0000.24,0000.21,0000.27,0000.03,26.9,04.8,0665.4,34.8
2016-08-16T01:45:00Z,0000380,00000600,0001.97,0000.78,0000.31,0000.21,-000.02,0000.27,0000.01,-000.21,-000.02,26.9,04.8,0665.4,34.8
2016-08-16T01:46:00Z,0000380,00000600,0002.12,0000.65,0000.65,0000.21,0000.22,-000.03,-000.05,0000.20,0000.06,26.9,04.8,0665.4,34.8
2016-08-16T01:47:00Z,0000380,00000600,0002.04,0001.53,0000.76,0000.30,-000.08,0000.16,0000.15,0000.08,0000.33,26.9,04.8,0665.4,34.8
2016-08-16T01:48:00Z,0000380,00000600,0002.21,0001.61,0001.04,0000.14,0000.35,0000.37,0000.65,0000.70,0000.22,26.8,04.8,0665.4,34.8
2016-08-16T01:49:00Z,0000380,00000600,0002.89,0001.05,0000.76,0000.56,0000.46,0000.24,-000.21,-000.18,-000.09,26.8,04.8,0665.4,34.8
2016-08-16T01:50:00Z,0000380,00000600,0002.61,0001.24,0001.52,0000.27,0000.52,0000.54,-000.12,-000.10,-000.06,26.8,04.8,0665.4,34.8
2016-08-16T01:51:00Z,0000380,00000600,0002.24,0000.76,0000.96,0000.13,0000.08,0000.30,0000.10,0000.24,0000.17,26.8,04.8,0665.4,34.8
2016-08-16T01:52:00Z,0000380,00000600,0002.45,0001.17,0000.52,0000.41,0000.51,0000.60,0000.07,-000.07,0000.04,26.8,04.7,0665.4,34.8
2016-08-16T01:53:00Z,0000380,00000600,0002.23,0001.22,0001.34,-000.05,0000.06,0000.16,0000.12,0000.01,0000.14,26.8,04.8,0665.4,34.8
2016-08-16T01:54:00Z,0000380,00000600,0002.65,0001.12,0000.69,0000.73,0000.03,0000.13,0000.05,0000.21,0000.17,26.8,04.8,0665.4,34.8
2016-08-16T01:55:00Z,0000380,00000600,0002.71,0001.90,0001.13,-000.06,0000.06,0000.30,0000.00,0000.27,0000.40,26.8,04.9,0665.4,34.8
2016-08-16T01:56:00Z,0000380,00000600,0002.36,0001.08,0000.66,0000.02,0000.16,0000.08,0000.16,0000.03,-000.02,26.8,05.0,0665.4,34.8
2016-08-16T01:57:00Z,0000380,40000600,,,,,,,,,,,,0665.3,34.8
2016-08-16T01:58:00Z,0000380,60000600,,,,,,,,,,26.7,05.0,0664.4,34.8
2016-08-16T01:59:00Z,0000380,20000600,,,,,,,,,,26.7,05.0,0664.4,34.8
2016-08-16T02:00:00Z,0000380,20000600,,,,,,,,,,26.7,05.1,0664.3,34.8
2016-08-16T02:01:00Z,0000380,20000600,,,,,,,,,,26.7,05.1,0664.4,34.8
2016-08-16T02:02:00Z,0000380,20000600,,,,,,,,,,26.7,05.1,0664.3,34.8
2016-08-16T02:03:00Z,0000380,60000600,,,,,,,,,,26.7,05.1,0664.3,34.8
2016-08-16T02:04:00Z,0000380,40000600,0001.82,0001.25,0000.94,-000.14,0000.22,0000.22,-000.03,0000.01,0000.13,26.8,05.4,0665.3,34.8
2016-08-16T02:05:00Z,0000380,00000600,0002.60,0000.41,0000.75,0000.75,0000.25,0000.43,0000.04,0000.17,0000.29,26.8,05.3,0665.4,34.8
2016-08-16T02:06:00Z,0000380,00000600,0002.30,0001.56,0000.85,-000.43,0000.25,0000.10,0000.29,0000.06,-000.09,26.8,05.4,0665.4,34.8
2016-08-16T02:07:00Z,0000380,00000600,0002.23,0001.22,0000.79,-000.06,0000.57,0000.24,-000.02,0000.08,0000.25,26.9,05.4,0665.4,34.8
2016-08-16T02:08:00Z,0000380,00000600,0002.61,0001.56,0000.43,0001.00,0000.06,-000.02,0000.06,0000.06,-000.01,26.9,05.4,0665.4,34.8
2016-08-16T02:09:00Z,0000380,00000600,0003.04,0000.55,0000.78,0000.56,0000.00,0000.32,-000.05,0000.04,-000.10,26.9,05.5,0665.4,34.8
2016-08-16T02:10:00Z,0000380,00000600,0001.65,0000.51,0000.43,0000.21,0000.48,0000.10,0000.24,0000.21,0000.54,26.9,05.5,0665.4,34.8
2016-08-16T02:11:00Z,0000380,00000600,0002.09,0001.26,0000.93,0000.24,0000.03,0000.06,-000.14,0000.13,-000.25,26.9,05.5,0665.4,34.8
2016-08-16T02:12:00Z,0000380,00000600,0002.75,0000.62,0000.25,0000.45,0000.44,-000.16,0000.12,0000.04,0000.17,27.0,05.5,0665.4,34.8
2016-08-16T02:13:00Z,0000380,00000600,0001.23,0000.79,0000.30,0000.40,-000.05,-000.03,0000.21,-000.06,0000.31,27.0,05.6,0665.4,34.8
2016-08-16T02:14:00Z,0000380,00000600,0001.68,0000.52,0001.02,0000.67,0000.00,-000.02,0000.03,0000.09,0000.00,27.0,05.6,0665.4,34.8
2016-08-16T02:15:00Z,0000380,00000600,0001.59,0001.74,0000.59,-000.21,0000.10,0000.16,0000.06,0000.12,-000.01,27.0,05.6,0665.4,34.8
2016-08-16T02:16:00Z,0000380,00000600,0002.00,0001.47,0000.30,0000.22,-000.06,-000.03,0000.08,0000.12,0000.57,27.0,05.6,0665.4,34.8
2016-08-16T02:17:00Z,0000380,00000600,0002.70,0000.88,0000.20,-000.65,0000.02,0000.21,-000.14,0000.20,-000.14,27.0,05.6,0665.4,34.8
2016-08-16T02:18:00Z,0000380,00000600,0001.99,0000.76,0000.61,0000.05,-000.06,0000.21,0000.43,-000.06,0000.13,27.0,05.7,0665.4,34.8
2016-08-16T02:19:00Z,0000380,00000600,0000.88,0000.27,0000.28,0000.11,0000.22,-000.13,-000.25,0000.03,-000.16,27.1,05.7,0665.4,34.8
2016-08-16T02:20:00Z,0000380,00000600,0002.05,0001.15,0000.28,-000.35,0000.65,0000.35,0000.02,0000.06,0000.16,27.0,05.7,0665.4,34.8
2016-08-16T02:21:00Z,0000380,00000600,0001.97,0001.07,0000.66,0000.25,0000.10,0000.16,0000.04,0000.11,0000.17,27.1,05.7,0665.4,34.8
2016-08-16T02:22:00Z,0000380,00000600,0001.77,0001.20,0000.70,0000.33,0000.21,0000.72,0000.01,0000.36,0000.02,27.1,05.7,0665.4,34.8
2016-08-16T02:23:00Z,0000380,00000600,0001.93,0000.60,0000.43,0000.35,-000.17,0000.08,0000.02,-000.08,-000.11,27.1,05.7,0665.4,34.8
2016-08-16T02:24:00Z,0000380,00000600,0002.20,0000.80,0000.60,0000.46,-000.02,-000.05,0000.22,-000.22,0000.32,27.1,05.7,0665.5,34.8
2016-08-16T02:25:00Z,0000380,00000600,0001.95,0000.48,0000.80,0000.56,0000.41,-000.14,-000.15,0000.36,0000.19,27.2,05.7,0665.4,34.8
2016-08-16T02:26:00Z,0000380,00000600,0001.28,0001.13,0000.51,0000.61,0000.59,-000.06,0000.04,0000.19,0000.23,27.2,05.7,0665.4,34.8
2016-08-16T02:27:00Z,0000380,00000600,0001.64,0000.65,0000.91,-000.35,0000.21,0000.32,0000.19,-000.09,0000.07,27.2,05.8,0665.4,34.8
2016-08-16T02:28:00Z,0000380,00000600,0000.82,0000.59,0000.70,-000.61,0000.10,0000.18,0000.06,-000.07,-000.29,27.2,05.8,0665.4,34.8
2016-08-16T02:29:00Z,0000380,00000600,0000.43,0000.89,0000.58,0000.22,0000.05,0000.19,-000.06,0000.10,0000.07,27.3,05.8,0665.4,34.8
2016-08-16T02:30:00Z,0000380,00000600,0003.02,0000.81,0000.81,-000.05,0000.51,0000.02,0000.08,0000.26,0000.22,27.3,05.8,0665.4,34.8
2016-08-16T02:31:00Z,0000380,00000600,0002.06,0001.20,0000.76,-000.48,0000.24,0000.27,0000.03,0000.10,0000.26,27.3,05.9,0665.4,34.8
2016-08-16T02:32:00Z,0000380,00000600,0002.11,0000.43,0000.20,-000.46,0000.13,-000.21,0000.08,-000.05,-000.19,27.3,05.9,0665.4,34.8
2016-08-16T02:33:00Z,0000380,00000600,0001.96,0000.10,0000.22,0000.33,0000.14,0000.10,0000.04,0000.02,-000.02,27.3,06.1,0665.4,34.8
2016-08-16T02:34:00Z,0000380,00000600,0001.01,0000.44,0000.31,0000.10,0000.22,0000.19,-000.17,0000.07,0000.21,27.3,06.1,0665.4,34.8
2016-08-16T02:35:00Z,0000380,00000600,0001.10,0001.37,0000.05,0000.48,0000.32,0000.30,0000.01,-000.10,-000.02,27.3,06.1,0665.4,34.8
2016-08-16T02:36:00Z,0000380,00000600,0001.76,-000.30,0000.72,-000.21,0000.05,0000.33,0000.21,0000.26,0000.29,27.3,06.0,0665.4,34.8
2016-08-16T02:37:00Z,0000380,00000600,0001.39,0000.70,0000.49,0000.37,-000.11,-000.14,0000.14,0000.01,0000.20,27.3,06.0,0665.4,34.8
2016-08-16T02:38:00Z,0000380,00000600,0002.31,0000.70,0000.34,-000.24,0000.17,-000.11,-000.01,0000.02,-000.08,27.3,06.1,0665.4,34.8
2016-08-16T02:39:00Z,0000380,00000600,0001.49,0000.80,0000.07,0000.13,-000.13,-000.13,0000.10,0000.10,0000.17,27.3,06.1,0665.4,34.8
2016-08-16T02:40:00Z,0000380,00000600,0001.50,0000.24,0000.10,-000.03,-000.06,0000.10,-000.12,-000.04,-000.23,27.3,06.1,0665.4,34.8
2016-08-16T02:41:00Z,0000380,00000600,0000.93,0000.69,0000.44,0000.30,0000.08,0000.14,0000.07,-000.01,0000.40,27.3,06.1,0665.3,34.8
2016-08-16T02:42:00Z,0000380,00000600,0000.74,0000.31,0000.03,-000.11,0000.33,-000.21,0000.11,0000.03,-000.48,27.3,06.2,0665.4,34.8
2016-08-16T02:43:00Z,0000380,00000600,0001.29,0000.14,0000.66,0000.02,0000.32,0000.11,-000.32,-000.20,0000.11,27.3,06.2,0665.4,34.8
2016-08-16T02:44:00Z,0000380,00000600,0001.12,-000.10,0000.45,-000.35,0000.21,-000.19,0000.10,0000.14,-000.12,27.3,06.1,0665.4,34.8
2016-08-16T02:45:00Z,0000380,00000600,0000.69,-000.10,0000.10,-000.14,-000.06,-000.03,0000.06,0000.08,0000.20,27.2,06.1,0665.4,34.8
2016-08-16T02:46:00Z,0000380,00000600,0000.17,0000.94,0000.70,0000.05,0000.21,-000.08,-000.09,-000.09,-000.04,27.2,06.1,0665.4,34.8
2016-08-16T02:47:00Z,0000380,00000600,0000.82,0000.13,0000.94,0000.16,-000.02,0000.19,-000.11,-000.05,0000.23,27.2,06.1,0665.4,34.8
2016-08-16T02:48:00Z,0000380,00000600,0001.23,0000.99,0000.43,-000.16,0000.17,0000.26,-000.01,-000.16,-000.21,27.2,06.1,0665.4,34.8
2016-08-16T02:49:00Z,0000380,00000600,0000.02,0000.60,0000.33,-000.11,0000.59,0000.11,-000.01,0000.15,0000.00,27.2,06.0,0665.4,34.8
2016-08-16T02:50:00Z,0000380,00000600,0001.01,0000.36,0000.54,0000.35,0000.16,0000.33,0000.20,0000.03,0000.06,27.1,06.2,0665.4,34.8
2016-08-16T02:51:00Z,0000380,00000600,0000.72,0000.24,0000.57,-000.54,0000.32,-000.08,0000.11,0000.43,0000.29,27.1,06.2,0665.3,34.8
2016-08-16T02:52:00Z,0000380,00000600,0000.25,0000.13,0000.61,-000.05,0000.13,0000.32,0000.05,-000.03,0000.04,27.1,06.3,0665.4,34.8
2016-08-16T02:53:00Z,0000380,00000600,0000.65,-000.09,0000.18,0000.06,0000.25,-000.14,0000.26,0000.08,0000.22,27.1,06.3,0665.4,34.8
2016-08-16T02:54:00Z,0000380,00000600,0000.88,0000.20,0000.53,-000.05,0000.40,0000.40,-000.06,-000.08,0000.09,27.1,06.3,0665.5,34.8
2016-08-16T02:55:00Z,0000380,00000600,0001.32,0000.25,0000.40,-000.45,0000.29,0000.22,0000.03,0000.07,-000.08,27.1,06.2,0665.5,34.8
2016-08-16T02:56:00Z,0000380,00000600,0001.03,0000.21,0000.76,0000.24,0000.25,0000.14,0000.10,0000.12,-000.06,27.0,06.2,0665.5,34.8
2016-08-16T02:57:00Z,0000380,40000600,,,,,,,,,,,,0665.7,34.8
2016-08-16T02:58:00Z,0000380,60000600,,,,,,,,,,26.9,06.0,0664.6,34.8
2016-08-16T02:59:00Z,0000380,20000600,,,,,,,,,,26.8,06.1,0664.5,34.8
2016-08-16T03:00:00Z,0000380,20000600,,,,,,,,,,26.8,06.2,0664.5,34.8
2016-08-16T03:01:00Z,0000380,20000600,,,,,,,,,,26.8,06.2,0664.5,34.8
2016-08-16T03:02:00Z,0000380,20000600,,,,,,,,,,26.8,06.2,0664.5,34.8
2016-08-16T03:03:00Z,0000380,60000600,,,,,,,,,,26.9,06.2,0664.6,34.8
2016-08-16T03:04:00Z,0000380,40000600,0000.64,0000.84,0000.30,0000.41,-000.32,0000.33,-000.32,-000.16,-000.07,27.0,06.2,0665.6,34.8
2016-08-16T03:05:00Z,0000380,00000600,0001.51,0001.26,0000.46,-000.14,-000.30,0000.62,0000.10,-000.02,-000.23,27.0,06.2,0665.6,34.8
2016-08-16T03:06:00Z,0000380,00000600,0000.88,0000.55,0000.13,-000.57,0000.16,-000.25,0000.16,0000.21,0000.05,27.0,06.1,0665.6,34.8
2016-08-16T03:07:00Z,0000380,00000600,0001.39,0001.13,0000.62,0000.10,0000.10,0000.21,-000.03,0000.02,0000.35,27.0,06.1,0665.5,34.8
2016-08-16T03:08:00Z,0000380,00000600,0001.59,0000.57,0000.12,0000.10,-000.22,-000.05,0000.17,0000.09,-000.21,27.0,06.2,0665.5,34.8
2016-08-16T03:09:00Z,0000380,00000600,0001.67,0001.09,0000.26,0000.60,0000.16,0000.08,-000.04,-000.21,-000.17,27.0,06.2,0665.5,34.8
2016-08-16T03:10:00Z,0000380,00000600,0000.48,0000.54,0000.87,-000.13,-000.02,0000.41,-000.21,0000.24,0000.30,27.0,06.2,0665.5,34.8
2016-08-16T03:11:00Z,0000380,00000600,0001.50,0000.79,0000.24,0000.32,0000.00,-000.46,0000.13,-000.07,-000.05,27.0,06.2,0665.6,34.8
2016-08-16T03:12:00Z,0000380,00000600,0002.08,0000.63,0000.19,0000.11,0000.25,0000.22,-000.09,0000.01,0000.16,27.0,06.2,0665.6,34.8